This is the latest recevied weather packets stored in our database for station/object KC5EZZ-2. If no packets are shown the sender has not sent any weather packets the latest 10 day(s).
| Time | Temp. | Humidity | Pressure | Rain* | Wind** | Luminosity | Snow |
|---|---|---|---|---|---|---|---|
| 1777823619 | 23.33° C | - | - | 0 mm | 3.13 m/s, 166° | - | - |
| 1777823319 | 22.78° C | - | - | 0 mm | 4.02 m/s, 207° | - | - |
| 1777823020 | 22.78° C | - | - | 0 mm | 4.92 m/s, 167° | - | - |
| 1777822717 | 22.78° C | - | - | 0 mm | 3.58 m/s, 191° | - | - |
| 1777822418 | 22.22° C | - | - | 0 mm | 4.92 m/s, 193° | - | - |
| 1777822118 | 21.67° C | - | - | 0 mm | 3.13 m/s, 181° | - | - |
| 1777821815 | 21.67° C | - | - | 0 mm | 4.02 m/s, 153° | - | - |
| 1777821516 | 21.67° C | - | - | 0 mm | 4.47 m/s, 201° | - | - |
| 1777821216 | 21.67° C | - | - | 0 mm | 3.58 m/s, 176° | - | - |
| 1777820914 | 21.11° C | - | - | 0 mm | 3.58 m/s, 194° | - | - |
| 1777820614 | 20.56° C | - | - | 0 mm | 3.13 m/s, 197° | - | - |
| 1777820315 | 20.56° C | - | - | 0 mm | 3.13 m/s, 193° | - | - |
| 1777820012 | 20.56° C | - | - | 0 mm | 3.58 m/s, 162° | - | - |
| 1777819713 | 20.56° C | - | - | 0 mm | 3.13 m/s, 183° | - | - |
| 1777819413 | 20° C | - | - | 0 mm | 2.24 m/s, 203° | - | - |
| 1777819111 | 20° C | - | - | 0 mm | 3.13 m/s, 188° | - | - |
| 1777818811 | 20.56° C | - | - | 0 mm | 2.68 m/s, 221° | - | - |
| 1777818512 | 20.56° C | - | - | 0 mm | 1.34 m/s, 170° | - | - |
| 1777818210 | 21.11° C | - | - | 0 mm | 1.34 m/s, 191° | - | - |
| 1777817910 | 20.56° C | - | - | 0 mm | 1.34 m/s, 212° | - | - |
| 1777817611 | 20° C | - | - | 0 mm | 1.79 m/s, 143° | - | - |
| 1777817307 | 20° C | - | - | 0 mm | 1.34 m/s, 149° | - | - |
| 1777817008 | 19.44° C | - | - | 0 mm | 1.34 m/s, 156° | - | - |
| 1777816708 | 19.44° C | - | - | 0 mm | 1.79 m/s, 195° | - | - |
| 1777816406 | 20° C | - | - | 0 mm | 0 m/s | - | - |
* Rain latest hour (hover to see other rain measurements)
** Current wind speed in m/s (hover to see current wind gust speed)